Shreveport, LA

2:13 PM CDT on July 27, 2017 (GMT -0500)
Shreveport Regional

Weather History for KSHV - November, 2012

Change the Weather History Date:

Saturday, November 3, 2012

  Actual Average Record
Temperature  
Mean Temperature 72 °F 61 °F  
Max Temperature 84 °F 72 °F 86 °F (2016)
Min Temperature 59 °F 49 °F 22 °F (1951)
Degree Days  
Heating Degree Days 0 6  
Month to date heating degree days 1 17  
Since 1 July heating degree days 103 103  
Cooling Degree Days 7 2  
Month to date cooling degree days 14 6  
Year to date cooling degree days 2930 2455  
Growing Degree Days 22 (Base 50)    
Moisture  
Dew Point 62 °F    
Average Humidity 76    
Maximum Humidity 100    
Minimum Humidity 51    
Precipitation  
Precipitation T in 0.17 in 2.79 in (1954)
Month to date precipitation T 0.49  
Year to date precipitation 45.17 42.60  
Snow  
Snow 0.00 in - - ()
Month to date snowfall 0.0  
Since 1 July snowfall 0.0  
Since 1 September snowfall 0.0  
Snow Depth 0.00 in    
Sea Level Pressure  
Sea Level Pressure 30.03 in    
Wind  
Wind Speed 7 mph (SSW)    
Max Wind Speed 18 mph    
Max Gust Speed 24 mph    
Visibility 9 miles    
Events      
T = Trace of Precipitation, MM = Missing Value Source: NWS Daily Summary

Daily Weather History Graph

Daily Weather History Graph

Search for Another Location

Airport or City:

Trip Planner

Search our weather history database for the weather conditions in past years. The results will help you decide how hot, cold, wet, or windy it might be!

Date:

Astronomy

Nov. 03, 2012 Rise Set
Actual Time 7:34 AM CDT 6:22 PM CDT
Civil Twilight 7:09 AM CDT 6:48 PM CDT
Nautical Twilight 6:40 AM CDT 7:17 PM CDT
Astronomical Twilight 6:11 AM CDT 7:46 PM CDT
Moon 10:09 PM CDT (11/3) 11:33 AM CDT (11/3)
Length of Visible Light 11h 38m
Length of Day
10h 47m
Waning Gibbous, 80% of the Moon is Illuminated
Nov 3
Waning Gibbous
Nov 6
Last Quarter
Nov 13
New
Nov 20
First Quarter
Nov 28
Full

Hourly Weather History & Observations

Time (CDT) Temp. Heat Index Dew Point Humidity Pressure Visibility Wind Dir Wind Speed Gust Speed Precip Events Conditions
12:56 AM 66.0 °F - 61.0 °F 84% 30.00 in 10.0 mi SSW 8.1 mph - N/A   Clear
1:56 AM 66.0 °F - 62.1 °F 87% 30.00 in 10.0 mi SSW 8.1 mph - N/A   Clear
2:56 AM 64.9 °F - 62.1 °F 90% 30.00 in 10.0 mi SSW 6.9 mph - N/A   Clear
3:56 AM 64.0 °F - 62.1 °F 93% 30.00 in 10.0 mi SSW 5.8 mph - N/A   Clear
4:56 AM 63.0 °F - 61.0 °F 93% 30.02 in 10.0 mi SSW 5.8 mph - N/A   Clear
5:56 AM 62.1 °F - 61.0 °F 96% 30.04 in 10.0 mi SSW 4.6 mph - N/A   Clear
6:56 AM 60.1 °F - 59.0 °F 96% 30.06 in 6.0 mi South 3.5 mph - N/A   Clear
7:43 AM 60.8 °F - 59.0 °F 94% 30.07 in 3.0 mi South 3.5 mph - N/A   Partly Cloudy
7:56 AM 60.1 °F - 59.0 °F 96% 30.07 in 2.0 mi South 3.5 mph - N/A   Partly Cloudy
8:18 AM 60.8 °F - 60.8 °F 100% 30.09 in 3.0 mi South 3.5 mph - N/A   Partly Cloudy
8:56 AM 64.9 °F - 64.0 °F 97% 30.09 in 7.0 mi SSW 6.9 mph - N/A   Scattered Clouds
9:56 AM 70.0 °F - 66.0 °F 87% 30.10 in 10.0 mi SW 4.6 mph - N/A   Scattered Clouds
10:56 AM 77.0 °F - 66.9 °F 71% 30.09 in 10.0 mi SW 13.8 mph 18.4 mph N/A   Scattered Clouds
11:56 AM 78.1 °F - 66.9 °F 68% 30.09 in 10.0 mi SW 13.8 mph 20.7 mph N/A   Mostly Cloudy
12:56 PM 75.9 °F - 64.0 °F 67% 30.06 in 10.0 mi SW 10.4 mph - N/A   Mostly Cloudy
1:56 PM 81.0 °F 82.5 °F 64.0 °F 56% 30.02 in 10.0 mi SW 8.1 mph - N/A   Scattered Clouds
2:56 PM 82.9 °F 84.0 °F 63.0 °F 51% 29.99 in 10.0 mi WNW 8.1 mph - N/A   Mostly Cloudy
3:56 PM 80.1 °F 81.5 °F 63.0 °F 56% 29.99 in 10.0 mi SSW 4.6 mph - N/A   Scattered Clouds
4:56 PM 79.0 °F - 64.0 °F 60% 29.99 in 10.0 mi South 3.5 mph - N/A   Scattered Clouds
5:56 PM 73.9 °F - 68.0 °F 82% 30.01 in 10.0 mi SSW 4.6 mph - 0.00 in   Mostly Cloudy
6:56 PM 72.0 °F - 64.9 °F 78% 30.02 in 10.0 mi South 4.6 mph - N/A   Overcast
7:56 PM 72.0 °F - 64.9 °F 78% 30.02 in 10.0 mi SSW 6.9 mph - N/A   Overcast
8:56 PM 70.0 °F - 63.0 °F 78% 30.04 in 10.0 mi SW 16.1 mph 24.2 mph N/A   Mostly Cloudy
9:56 PM 66.9 °F - 59.0 °F 76% 30.03 in 10.0 mi WSW 9.2 mph - N/A   Mostly Cloudy
10:56 PM 66.9 °F - 57.9 °F 73% 30.04 in 10.0 mi Calm Calm - N/A   Mostly Cloudy
11:56 PM 64.9 °F - 59.0 °F 81% 30.03 in 10.0 mi West 3.5 mph - N/A   Overcast